{"data":{"norad_id":69513,"epoch":"2026-09-19T12:48:55.084032Z","epoch_age_seconds":108850,"freshness":"FRESH","line1":"1 69513U 26133F   26262.53397088  .00027911  00000+0  83412-3 0  9990","line2":"2 69513  53.1563 234.3958 0001574  83.4356 276.6826 15.34400458 16614","mean_motion":15.34400458,"eccentricity":0.0001574,"inclination_deg":53.1563,"raan_deg":234.3958,"arg_perigee_deg":83.4356,"mean_anomaly_deg":276.6826,"bstar":0.00083412,"rev_number":1661,"period_min":93.847730068913,"perigee_km":461.62513089538,"apogee_km":463.77862697447,"semimajor_km":6840.8388789349,"source":"CELESTRAK","updated_at":"2026-09-20T09:00:44.211373Z"}}